Location: Unspecified
(0.0000°N, 0.0000°E)
Time: 13:41:21
(UTC+00:00)

deb Explorer IX - Pass Details

Date: 22 November 2019
Orbit: 545 x 1105 km, 38.8° (Epoch: 08 December)

Event Time Altitude Azimuth Distance (km) Brightness Sun altitude
Rises 17:26:17 0° 191° (S) 3,577 ? 4.7°
Reaches altitude 10° 17:31:26 10° 156° (SSE) 2,775 ? 3.4°
Maximum altitude 17:33:06 11° 141° (SE) 2,745 ? 3.1°
Drops below altitude 10° 17:34:48 10° 127° (SE) 2,848 ? 2.7°
Sets 17:40:20 0° 93° (E) 3,884 ? 1.4°
